Regional Weather Roundup
Issued by NWS Upton, NY

Current Version | Previous Version | Graphics & Text | Print | Product List | Glossary Off
Versions: 1 2 3 4 5 6 7 8 9 10 11 12 13 14 15 16 17 18 19 20 21 22 23 24 25 26 27 28 29 30 31 32 33 34 35 36 37 38 39 40 41 42 43 44 45 46 47 48 49 50

000
ASUS41 KOKX 301718
RWROKX

REGIONAL WEATHER ROUNDUP
NATIONAL WEATHER SERVICE NEW YORK NY
100 PM EDT TUE JUN 30 2015

NOTE: "FAIR" INDICATES FEW OR NO CLOUDS BELOW 12,000 FEET WITH NO
SIGNIFICANT WEATHER AND/OR OBSTRUCTIONS TO VISIBILITY.

NYZ071-072-176-178-NJZ106-104-301800-
NEW YORK CITY METRO AREA


CITY           SKY/WX    TMP DP  RH WIND       PRES   REMARKS
CENTRAL PARK   PTSUNNY   79  57  46 MISG      29.98S
LAGUARDIA APRT PTSUNNY   79  53  40 S18G28    29.94F
KENNEDY INTL   PTSUNNY   79  56  45 S18G26    29.97F
NEWARK/LIBERTY PTSUNNY   82  57  42 S16G22    29.93F
BRNX BOT. GARD   N/A     79  55  44 W3        29.97S
TETERBORO      PTSUNNY   82  54  37 S15G24    29.93F
$$

NYZ177-179-078>081-301800-
LONG ISLAND NEW YORK

CITY           SKY/WX    TMP DP  RH WIND       PRES   REMARKS
FARMINGDALE    SUNNY     80  58  46 S20       29.98S
ISLIP          MOSUNNY   79  58  48 S15       29.97S
SHIRLEY        SUNNY     79  60  52 SW13      29.99F
WESTHAMPTON    SUNNY     77  60  55 S12G18    30.00F
MONTAUK POINT    N/A     77  64  64 S7        30.01F
$$

NYZ052-065-067-301800-
HUDSON VALLEY

CITY           SKY/WX    TMP DP  RH WIND       PRES   REMARKS
WHITE PLAINS   MOSUNNY   78  56  46 S17G26    29.96S
NEWBURGH       LGT RAIN  72  64  78 E7        29.97S
MONTGOMERY     LGT RAIN  68  66  93 N7        29.95F
POUGHKEEPSIE   LGT RAIN  75  65  70 W6        29.95R
ALBANY         LGT RAIN  68  60  75 W3        29.99R
$$

NJZ001-105-106-008-010-013-015-019>022-104-301800-
NEW JERSEY

CITY           SKY/WX    TMP DP  RH WIND       PRES   REMARKS
NEWARK/LIBERTY PTSUNNY   82  57  42 S16G22    29.93F
TETERBORO      PTSUNNY   82  54  37 S15G24    29.93F
CALDWELL       MOSUNNY   82  58  43 S13       29.93F
MORRISTOWN     PTSUNNY   81  64  57 SW12      29.95S
SOMERVILLE     PTSUNNY   82  63  52 S13       29.90F
SUSSEX         CLOUDY    71  64  78 CALM      29.93F
ANDOVER          N/A     76  65  68 VRB5      29.93F
TRENTON        MOSUNNY   82  63  52 S20       29.91F
MILLVILLE      MOSUNNY   80  67  64 S13G26    29.93F
ATLANTIC CITY  SUNNY     80  63  55 S12G24    29.95F
WRIGHTSTOWN    SUNNY     84  64  50 S18G24    29.90F
TOMS RIVER     SUNNY     82  61  47 S12G20    29.95F
BELMAR         SUNNY     79  59  50 S10G21    29.95F
$$

PAZ047>061-062-071-301800-
EASTERN PENNSYLVANIA

CITY           SKY/WX    TMP DP  RH WIND       PRES   REMARKS
PHILADELPHIA   PTSUNNY   84  67  56 S14G24    29.91F
ALLENTOWN      PTSUNNY   76  69  79 N5        29.90F
SCRANTON       CLOUDY    72  65  78 S5        29.91F
$$

CTZ002-004>006-009-010-012-RIZ004-006-007-MAZ004-011-015-301800-
SOUTHERN NEW ENGLAND
 IN CT

CITY           SKY/WX    TMP DP  RH WIND       PRES   REMARKS
BRADLEY INTL   MOSUNNY   81  62  52 SW9       29.95F
HARTFORD       MOSUNNY   81  60  48 S8G22     29.95F
DANBURY        PTSUNNY   77  57  50 S13G18    29.98S
WTRBRY/OXFORD  PTSUNNY   79  61  53 S12G20    30.01F
BRIDGEPORT     SUNNY     76  64  66 E8        29.98S
MERIDEN        PTSUNNY   80  59  48 S13G21    29.97F
NEW HAVEN      MOSUNNY   79  63  57 SE8       29.98S
CHESTER        FAIR      79  61  53 SW13G18   30.00S
GROTON         SUNNY     74  65  73 S8        29.99S
WILLIMANTIC    MOSUNNY   80  60  50 S13       29.97F

 IN RI

CITY           SKY/WX    TMP DP  RH WIND       PRES   REMARKS
PROVIDENCE     PTSUNNY   79  64  60 SE8       29.98F
BLOCK ISLAND   SUNNY     73  64  73 SW13      30.01F
WESTERLY       SUNNY     75  63  66 S12       30.00F

 IN MA

CITY           SKY/WX    TMP DP  RH WIND       PRES   REMARKS
BOSTON         MOSUNNY   72  59  63 E12       29.99S
WORCESTER      PTSUNNY   76  59  55 S9        30.01F
WESTFIELD      MOSUNNY   77  61  57 S8        29.97F
PROVINCETOWN   SUNNY     82  21  10 SW13      29.99F
NANTUCKET      SUNNY     72  64  76 S9        30.02F
$$

ANZ330-335-338-340-345-350-353-355-301800-
COASTAL MARINE OBSERVATIONS


STATION/POSITION TIME  SKY/WX   TEMP    WIND        PRES    VSBY  WAVE
                                AIR SEA DIR/SP/G                  HT/PER
                 (UTC)          (F)     (DEG/KT/KT) (MB)    (MI)  (FT/S)
NY HARB ENTRANCE 1650            71 69  150/ 12/ 14 1014.4          3/ 8
4S FIRE IS       1603               67                N/A           3/ 8
20S FIRE ISLAND  1650            69 67  170/ 10/ 10 1015.0          3/ 8
GREAT SOUTH BAY  1600            71 73  220/ 10/ 12   N/A
23SW MTP         1650            68 66  190/  8/ 10 1015.4          3/ 8
HUDSON CANYON    NOT AVBL
KINGS POINT      1600            75 65  200/ 16/ 18 1013.9
CENTRAL LI SOUND NOT AVBL
EASTERN LI SOUND 1600            67     110/  4/  4   N/A
ROBBINS REEF     1600            74     160/ 20/ 21 1013.0
$$


>>>>>>>>>>>>>>>>>>>>>>>>>>>> KEY <<<<<<<<<<<<<<<<<<<<<<<<<<<
>                                                          <
>     SKY/WX - SKY CONDITION/PRESENT WEATHER               <
>     TMP    - TEMPERATURE IN FAHRENHEIT                   <
>     DP     - DEWPOINT IN FAHRENHEIT                      <
>     RH     - RELATIVE HUMIDITY IN PERCENT                <
>     WIND   - DIRECTION AND SPEED IN MPH                  <
>     PRES   - MEAN SEA LEVEL PRESSURE IN INCHES OF HG     <
>     WCI    - WIND CHILL INDEX                            <
>     VSB    - VISIBILITY IN MILES                         <
>     HX     - HEAT INDEX                                  <
>     TC     - TEMPERATURE IN CELSIUS                      <
>     VRB    - VARIABLE WIND DIRECTION                     <
>                                                          <
>>>>>>>>>>>>>>>>>>>>>>>>>>>> KEY <<<<<<<<<<<<<<<<<<<<<<<<<<<





USA.gov is the U.S. government's official web portal to all federal, state and local government web resources and services.